GW1347 Weather Reports


Display with metric or nautical units.
time (UTC)temp
F
wind
direction
speed
MPH
gust
MPH
rain 1hr
in
rain 24hr
in
rain mn
in
humidity
%
barometer
mb
20260903092136 77 245 0.0 2.0 0.00 0.00 0.00 87 1016.9
20260903090003 77 226 1.0 3.0 0.00 0.00 0.00 87 1016.9
20260903083812 78 238 1.0 3.0 0.00 0.00 0.00 85 1016.9
20260903082810 78 146 1.0 3.0 0.00 0.00 0.00 85 1016.9
20260903081823 78 150 1.0 3.0 0.00 0.00 0.00 84 1016.9
20260903080827 78 173 0.0 0.0 0.00 0.00 0.00 84 1016.9
20260903075836 78 164 0.0 0.0 0.00 0.00 0.00 84 1016.9
20260903074829 79 243 1.0 3.0 0.00 0.00 0.00 84 1016.7
20260903073812 78 245 1.0 3.0 0.00 0.00 0.00 84 1016.7
20260903072738 79 235 0.0 3.0 0.00 0.00 0.00 84 1016.5
20260903071725 79 218 1.0 1.0 0.00 0.00 0.00 84 1016.6
20260903070748 79 207 1.0 3.0 0.00 0.00 0.00 83 1016.6
20260903065751 79 282 0.0 0.0 0.00 0.00 0.00 85 1016.5
20260903064811 78 210 0.0 0.0 0.00 0.00 0.00 85 1016.6
20260903062618 79 210 0.0 0.0 0.00 0.00 0.00 84 1016.6
20260903055344 80 243 0.0 0.0 0.00 0.00 0.00 83 1016.5
20260903054324 80 243 0.0 0.0 0.00 0.00 0.00 83 1016.6
20260903053333 80 243 0.0 0.0 0.00 0.00 0.00 83 1016.5
20260903052347 80 243 0.0 0.0 0.00 0.00 0.00 83 1016.3
20260903051342 80 249 1.0 0.0 0.00 0.00 0.00 83 1016.4
20260903050402 80 228 0.0 3.0 0.00 0.00 0.00 83 1016.3
20260903044208 81 237 1.0 2.0 0.00 0.00 0.00 82 1016.1
20260903043145 81 237 0.0 1.0 0.00 0.00 0.00 82 1016.1
20260903042200 81 237 0.0 1.0 0.00 0.00 0.00 81 1016.1
20260903041158 82 245 0.0 0.0 0.00 0.00 0.00 79 1016.2
20260903040208 82 245 0.0 0.0 0.00 0.00 0.00 79 1016.1
20260903035212 82 237 0.0 0.0 0.00 0.00 0.00 78 1016.2
20260903034158 83 229 0.0 1.0 0.00 0.00 0.00 77 1016.2
20260903033211 83 214 0.0 0.0 0.00 0.00 0.00 77 1016.3
20260903031125 84 214 0.0 0.0 0.00 0.00 0.00 74 1016.3
20260903030056 85 214 0.0 3.0 0.00 0.00 0.00 72 1016.3
20260903025116 85 210 0.0 3.0 0.00 0.00 0.00 72 1016.2
20260903022937 85 170 1.0 3.0 0.00 0.00 0.00 71 1016.2
20260903021953 85 187 0.0 3.0 0.00 0.00 0.00 72 1016.2
20260903020936 85 216 0.0 0.0 0.00 0.00 0.00 73 1016.3
20260903015908 86 223 0.0 0.0 0.00 0.00 0.00 72 1016.3
20260903014933 86 179 0.0 1.0 0.00 0.00 0.00 71 1016.3
20260903013957 86 248 0.0 0.0 0.00 0.00 0.00 71 1016.3
20260903011851 87 210 0.0 0.0 0.00 0.00 0.00 68 1016.2
20260903010836 88 223 0.0 2.0 0.00 0.00 0.00 66 1016.1
20260903005852 89 191 1.0 4.0 0.00 0.00 0.00 65 1016.0
20260903004851 89 240 2.0 4.0 0.00 0.00 0.00 65 1016.0
20260903003855 90 229 1.0 4.0 0.00 0.00 0.00 63 1015.9
20260903002911 90 280 1.0 4.0 0.00 0.00 0.00 62 1015.8
20260903001842 90 240 1.0 4.0 0.00 0.00 0.00 63 1015.9
20260903000827 91 228 3.0 5.0 0.00 0.00 0.00 61 1015.8
20260902234646 92 17 3.0 8.0 0.00 0.00 0.00 58 1015.8
20260902233625 93 224 3.0 8.0 0.00 0.00 0.00 56 1015.8
20260902232632 94 186 2.0 5.0 0.00 0.00 0.00 57 1015.8
20260902231603 94 229 2.0 7.0 0.00 0.00 0.00 55 1015.8
20260902230622 95 226 3.0 7.0 0.00 0.00 0.00 53 1015.9
20260902224413 94 245 3.0 8.0 0.00 0.00 0.00 54 1016.0
20260902223355 95 242 4.0 9.0 0.00 0.00 0.00 53 1015.9
20260902222415 95 252 4.0 9.0 0.00 0.00 0.00 51 1015.9
20260902221428 95 249 4.0 11.0 0.00 0.00 0.00 52 1016.1
20260902215351 96 220 4.0 11.0 0.00 0.00 0.00 50 1016.1
20260902214324 95 314 4.0 11.0 0.00 0.00 0.00 50 1016.2
20260902213346 97 233 3.0 11.0 0.00 0.00 0.00 50 1016.2
20260902212356 96 330 5.0 13.0 0.00 0.00 0.00 50 1016.2
20260902211322 96 225 6.0 13.0 0.00 0.00 0.00 51 1016.2
20260902210329 98 226 2.0 6.0 0.00 0.00 0.00 49 1016.2
20260902205306 97 285 4.0 11.0 0.00 0.00 0.00 49 1016.3
20260902204319 97 240 4.0 11.0 0.00 0.00 0.00 47 1016.5
20260902202226 98 257 1.0 5.0 0.00 0.00 0.00 47 1016.6
20260902201155 97 89 4.0 13.0 0.00 0.00 0.00 48 1016.8
20260902200133 96 240 5.0 13.0 0.00 0.00 0.00 47 1016.9
20260902193958 97 224 5.0 13.0 0.00 0.00 0.00 48 1017.1
20260902193018 96 217 6.0 13.0 0.00 0.00 0.00 50 1017.1
20260902192036 96 243 5.0 11.0 0.00 0.00 0.00 49 1017.2
20260902191029 97 258 4.0 14.0 0.00 0.00 0.00 49 1017.3
20260902190033 96 217 4.0 14.0 0.00 0.00 0.00 51 1017.4
20260902185003 96 276 3.0 11.0 0.00 0.00 0.00 48 1017.4
20260902184004 96 180 6.0 11.0 0.00 0.00 0.00 51 1017.5
20260902182938 95 243 5.0 14.0 0.00 0.00 0.00 51 1017.6
20260902180807 94 249 6.0 13.0 0.00 0.00 0.00 53 1017.6
20260902175746 94 248 6.0 13.0 0.00 0.00 0.00 52 1017.9
20260902174749 95 241 5.0 11.0 0.00 0.00 0.00 53 1017.8
20260902173742 95 219 4.0 11.0 0.00 0.00 0.00 53 1017.9
20260902172735 95 251 3.0 10.0 0.00 0.00 0.00 52 1018.1
20260902171731 94 286 4.0 11.0 0.00 0.00 0.00 54 1018.1
20260902170744 93 219 5.0 12.0 0.00 0.00 0.00 56 1018.2
20260902165715 93 223 5.0 18.0 0.00 0.00 0.00 56 1018.4
20260902164712 92 203 7.0 18.0 0.00 0.00 0.00 57 1018.4
20260902163640 92 205 8.0 15.0 0.00 0.00 0.00 57 1018.5
20260902162649 92 249 6.0 11.0 0.00 0.00 0.00 59 1018.6
20260902161644 92 237 4.0 10.0 0.00 0.00 0.00 59 1018.6
20260902160656 91 196 4.0 10.0 0.00 0.00 0.00 62 1018.6
20260902154503 91 283 4.0 11.0 0.00 0.00 0.00 61 1018.6
20260902153437 90 259 6.0 11.0 0.00 0.00 0.00 62 1018.7
20260902152406 89 258 4.0 11.0 0.00 0.00 0.00 63 1018.7
20260902151348 89 222 4.0 9.0 0.00 0.00 0.00 66 1018.7
20260902145133 89 252 3.0 8.0 0.00 0.00 0.00 66 1018.8
20260902144134 88 250 3.0 8.0 0.00 0.00 0.00 68 1018.8
20260902143106 88 244 2.0 6.0 0.00 0.00 0.00 69 1018.9
20260902135731 86 202 1.0 6.0 0.00 0.00 0.00 72 1018.8
20260902134658 85 245 1.0 4.0 0.00 0.00 0.00 74 1018.8
20260902133716 84 224 1.0 4.0 0.00 0.00 0.00 73 1019.0
20260902132726 83 238 1.0 4.0 0.00 0.00 0.00 75 1019.0
20260902130657 82 159 1.0 3.0 0.00 0.00 0.00 77 1019.0
20260902125631 81 148 1.0 3.0 0.00 0.00 0.00 78 1019.0
20260902124559 81 180 0.0 0.0 0.00 0.00 0.00 78 1019.0
20260902123602 80 128 0.0 0.0 0.00 0.00 0.00 80 1018.9
20260902122614 79 84 0.0 0.0 0.00 0.00 0.00 82 1019.0
20260902121541 78 129 0.0 3.0 0.00 0.00 0.00 83 1018.9
20260902120512 78 72 0.0 1.0 0.00 0.00 0.00 84 1018.7
20260902115527 76 108 0.0 0.0 0.00 0.00 0.00 86 1018.7
20260902114534 75 108 0.0 0.0 0.00 0.00 0.00 88 1018.7
20260902113544 75 108 0.0 0.0 0.00 0.00 0.00 89 1018.6
20260902112524 74 108 0.0 0.0 0.00 0.00 0.00 89 1018.5
20260902111500 74 108 0.0 0.0 0.00 0.00 0.00 89 1018.4
20260902110447 74 108 0.0 0.0 0.00 0.00 0.00 89 1018.3
20260902105436 75 108 0.0 0.0 0.00 0.00 0.00 88 1018.2
20260902104404 75 131 0.0 1.0 0.00 0.00 0.00 88 1018.0
20260902103416 75 132 0.0 0.0 0.00 0.00 0.00 87 1018.1
20260902102411 75 132 0.0 0.0 0.00 0.00 0.00 88 1018.0
20260902101340 75 132 0.0 0.0 0.00 0.00 0.00 88 1018.0
20260902100332 75 126 0.0 2.0 0.00 0.00 0.00 88 1017.9
20260902094200 76 129 0.0 0.0 0.00 0.00 0.00 87 1017.9